Showing default

IRIDIUM 122, 42957

Orbit data source: Space-Track

IRIDIUM 122, 42957 is a payload satellite owned by Iridium (US) in LEO that was launched on Mon, 09 Oct 2017 UTC via an FALCON 9 launch vehicle from the Air Force Western Test Range (AFWTR). Payloads include a variety of satellites, spacecraft, and rockets equipped with specific instruments for various scientific and technological missions. These include communications satellites like Starlink; space stations such as the ISS; scientific satellites like the Hubble; Earth observation satellites from companies like Planet Labs, Umbra, and HawkEye 360; GPS; miniature CubeSats for education and research; and military/defense satellites.

Loading next visibility...
IRIDIUM 122 details
Identifier
42957, 2017-061C
Orbit
LEO
Last TLE update11 hours ago
Origin
Flag of USIridium (US)
ManufacturerOATK SSG Gilbert
MissionOperational Commercial Communications
Bus & MotorELITEBUS, Unknown motor
Mass860 kg wet, 700 kg dry
Launch date (UTC)
2017-10-09 (7 years ago)
Launch vehicle
FALCON 9
Launch site
Air Force Western Test Range (AFWTR)
Object type
Payload
Rocket body
Debris
Shape & HBRTrap Box + 2 Pan, 9.4 m
Radar Cross Section14.423 m², Large (>1 m²)

Expand to show TLE details & history

TLE from 11 hours ago
0 IRIDIUM 122
1 42957U 17061C   24361.42706555  .00000579  00000-0  19976-3 0  9998
2 42957  86.3967 249.8733 0001760  78.7387 281.4007 14.34218687377708
Epoch: 2024-12-26T10:14Z
Definitive object data (Epoch: 2024-12-26T10:14:58.463Z)
Latitude0.00002°
Longitude0.72309°
Altitude780.466 km
Speed7.464 km/s
True Right ascension16h 39m 29s
True Declination0° 00' 00"
Sunlit
Object was in daylight at TLE epoch
Visualization TLE readout
Latitude-72.43532°
Longitude-10.88844°
Altitude805.568 km
Speed7.449 km/s
Apparent Right ascension10h 43m 35s
Apparent Declination-65° 49' 40"
Sunlit
Object is in daylight
Visualization observer readout
Local Sidereal Time21:00:57
Azimuth200.959° SSW
Elevation-60.285°
Doppler factor1
Orbital elements
Apogee altitude775.887 km
Perigee altitude773.37 km
Semi-major axis7,152.766 km
Eccentricity0.000176
Inclination86.3967°
RAAN249.8733°
Arg. of periapsis78.7387°
True anomaly281.38093°
Mean anomaly281.4007°
Eccentric anomaly281.39081°
Mean motion3.58783 °/min
BSTAR0.00019976
Orbital period100.34 mins
Loading maneuver chart data...
Loading historical data...
Loading historical data...
Loading historical data...
Loading historical data...
Loading historical data...
Loading historical data...
Loading historical data...

IRIDIUM 122 Visibility forecast

Observer location: undefined°, undefined

Span
Click to sort rows by Start time (UTC) header in descending order
Start Az.
Max El. time (UTC)
Max El. Az.
Max El.
End time (UTC)
End Az.
4 mins2024-12-27 03:35:55.642Z48.997° ENE2024-12-27 03:37:55.642Z73.667° E14.139°2024-12-27 03:39:55.642Z98.543° ESE
8 mins2024-12-27 05:15:55.642Z344.705° N2024-12-27 05:18:55.642Z283.671° WNW41.175°2024-12-27 05:23:55.642Z192.439° SSW
7 mins2024-12-27 16:31:55.642Z129.691° SE2024-12-27 16:34:55.642Z76.766° E26.708°2024-12-27 16:38:55.642Z24.797° NE
7 mins2024-12-27 18:11:55.642Z229.124° WSW2024-12-27 18:14:55.642Z273.327° WNW25.379°2024-12-27 18:18:55.642Z334.092° NNW
|